Flag for South Africa Weather past 2 weeks in Cape Town, South Africa

Now
68 °F

Clear.


Feels Like: 68 °F
Forecast: 62 / 81 °F
Wind: 17 mph from South

Location: Cape Town International Airport

Current Time: Feb 28, 2015 at 12:45:56 AM

Latest Report: Feb 28, 2015 at 12:00 AM


Visibility: 10 mi

Pressure: 29.98 "Hg

Humidity: 64%

Dew point: 55 °F

Location of Cape TownLocation

Historic Weather in Cape Town — Graph

°F

Cape Town temperature yesterday

Maximum temperature yesterday: 77 °F (at 11:00 AM)
Minimum temperature yesterday: 64 °F (at 2:00 AM)
Average temperature yesterday: 69 °F

Past Weeks' High & Low Weather Summary

 TemperatureHumidityPressure
High91 °F (Feb 17, 2:00 PM)94% (Feb 14, 1:00 AM)30.18 "Hg (Feb 14, 1:00 AM)
Low48 °F (Feb 22, 6:00 AM)24% (Feb 17, 2:00 PM)29.74 "Hg (Feb 17, 11:00 PM)
Average69 °F62%29.96 "Hg
* Reported Feb 12 11:00 PM — Feb 27 11:00 PM, Cape Town, Weather by CustomWeather, © 2015

Note: Actual official high and low records may vary slightly from our data, if they occured in-between our weather recording intervals... More about our weather records

Advertising

Cape Town weather history for previous 24 hours

 ConditionsComfort  
Time TempWeatherWind HumidityBarometerVisibility
11:00 PM
Fri, Feb 27
68 °FPassing clouds.17 mph69%29.98 "HgN/A
10:00 PM68 °FClear.15 mph69%29.98 "Hg10 mi
9:00 PM68 °FClear.14 mph64%29.98 "Hg10 mi
8:00 PM68 °FClear.15 mph64%29.95 "Hg10 mi
7:00 PM70 °FClear.20 mph60%29.95 "Hg10 mi
6:00 PM70 °FSunny.23 mph64%29.98 "Hg10 mi
5:00 PM73 °FSunny.24 mph57%29.98 "Hg10 mi
4:00 PM73 °FSunny.25 mph57%29.98 "Hg10 mi
3:00 PM75 °FSunny.25 mph54%29.98 "Hg10 mi
2:00 PM75 °FSunny.25 mph57%29.98 "Hg10 mi
1:00 PM75 °FSunny.24 mph54%30.01 "Hg10 mi
12:00 PM75 °FSunny.17 mph54%30.01 "Hg10 mi
11:00 AM77 °FPassing clouds.12 mph47%30.01 "HgN/A
10:00 AM73 °FPassing clouds.14 mph53%30.01 "HgN/A
9:00 AM70 °FSunny.14 mph60%30.01 "Hg10 mi
8:00 AM66 °FSunny.14 mph73%30.01 "Hg10 mi
7:00 AM64 °FSunny.13 mph78%29.98 "Hg10 mi
6:00 AM64 °FSunny.13 mph73%29.98 "Hg10 mi
5:00 AM64 °FClear.12 mph73%29.98 "Hg10 mi
4:00 AM64 °FPassing clouds.16 mph73%29.98 "HgN/A
3:00 AM64 °FPassing clouds.17 mph78%29.98 "HgN/A
2:00 AM64 °FPassing clouds.16 mph78%29.98 "HgN/A
1:00 AM66 °FPassing clouds.17 mph73%29.98 "HgN/A
12:00 AM66 °FPassing clouds.18 mph73%29.95 "HgN/A
Weather by CustomWeather, © 2015

See weather overviewHow to use our weather pages